STARLINK-1507 (45748 NORAD) Tracking and Keplerian Element Data

This shows tracking and keplerian element data for the satellite.

Feedback or suggestion? Click here.




ElementValue
Catalog45748
NameSTARLINK-1507
Epoch Orbit531
Epoch Day192.16668981
Epoch Year2020
RAAN166.2847
Inclination53.0018
Eccentricity0.0001335
Argument of Perigee81.5104
Mean Anonmoly71.049
Mean Motion15.42484753
Decay Rate-0.01198382
L11 45748U 20038U 20192.16668981 -.01198382 00000-0 -29940-1 0 9999
L22 45748 53.0018 166.2847 0001335 81.5104 71.0490 15.42484753 5315

Live tracking and technical data element details for STARLINK-1507 (NORAD 45748). STARLINK-1507 can be tracked NOW for your location showing map with azimuth and elevation plus other details from your city location.

Track the satellite on the map from your city or location and see movement details for azimuth, elevation, latitude, longitude, range, height, and movement on the map or in text.







IsCatalogInMostPopularTable: catalog: 45748, numindb: 4
Update: records affected: 1



GetName: 45748 STARLINK-1507

Hit Count: updated at: Fri, 10 Jul 2020 16:46:34 GMT